Lovelock, NV

6:57 PM PDT on September 21, 2017 (GMT -0700)
Derby

Weather History for KLOL - October, 2013

Change the Weather History Date:

Wednesday, October 2, 2013

  Actual Average Record
Temperature  
Mean Temperature 56 °F -  
Max Temperature 72 °F 76 °F 93 °F (2010)
Min Temperature 42 °F 41 °F 22 °F (1950)
Degree Days  
Heating Degree Days 9    
Growing Degree Days 6 (Base 50)    
Moisture  
Dew Point 25 °F    
Average Humidity 36    
Maximum Humidity 58    
Minimum Humidity 11    
Precipitation  
Precipitation 0.00 in - - ()
Sea Level Pressure  
Sea Level Pressure 29.93 in    
Wind  
Wind Speed 9 mph (NW)    
Max Wind Speed 21 mph    
Max Gust Speed 28 mph    
Visibility 10 miles    
Events      
Averages and records for this station are not official NWS values.
T = Trace of Precipitation, MM = Missing Value Source: NWS Daily Summary

Daily Weather History Graph

Daily Weather History Graph

Search for Another Location

Airport or City:

Trip Planner

Search our weather history database for the weather conditions in past years. The results will help you decide how hot, cold, wet, or windy it might be!

Date:

Astronomy

Oct. 02, 2013 Rise Set
Actual Time 6:51 AM PDT 6:34 PM PDT
Civil Twilight 6:24 AM PDT 7:01 PM PDT
Nautical Twilight 5:53 AM PDT 7:32 PM PDT
Astronomical Twilight 5:21 AM PDT 8:04 PM PDT
Moon 4:29 AM PDT (10/2) 5:12 PM PDT (10/2)
Length of Visible Light 12h 36m
Length of Day
11h 42m
Waning Crescent, 6% of the Moon is Illuminated
Oct 2
Waning Crescent
Oct 4
New
Oct 11
First Quarter
Oct 18
Full
Oct 26
Last Quarter

Hourly Weather History & Observations

Time (PDT) Temp. Windchill Dew Point Humidity Pressure Visibility Wind Dir Wind Speed Gust Speed Precip Events Conditions
12:53 AM 51.1 °F - 30.0 °F 44% 29.96 in 10.0 mi North 5.8 mph 16.1 mph N/A   Clear
1:53 AM 50.0 °F - 30.0 °F 46% 29.96 in 10.0 mi NNE 18.4 mph 23.0 mph N/A   Clear
2:53 AM 46.9 °F - 28.0 °F 48% 29.96 in 10.0 mi North 8.1 mph - N/A   Clear
3:53 AM 46.0 °F 41.0 °F 28.0 °F 50% 29.96 in 10.0 mi North 10.4 mph - N/A   Clear
4:53 AM 44.1 °F 38.6 °F 28.0 °F 53% 29.96 in 10.0 mi North 10.4 mph - N/A   Clear
5:53 AM 43.0 °F 38.8 °F 28.0 °F 56% 29.97 in 10.0 mi NNW 6.9 mph - N/A   Clear
6:53 AM 42.1 °F 40.2 °F 28.0 °F 58% 29.99 in 10.0 mi West 3.5 mph - N/A   Clear
7:53 AM 44.1 °F 41.5 °F 28.0 °F 53% 30.01 in 10.0 mi NNE 4.6 mph - N/A   Clear
8:53 AM 46.9 °F - 28.9 °F 50% 30.01 in 10.0 mi Variable 3.5 mph - N/A   Clear
9:53 AM 48.0 °F - 28.9 °F 48% 29.99 in 10.0 mi Calm Calm - N/A   Clear
10:53 AM 51.1 °F - 28.0 °F 41% 29.99 in 10.0 mi Calm Calm - N/A   Clear
11:53 AM 55.9 °F - 28.0 °F 34% 29.96 in 10.0 mi Variable 3.5 mph - N/A   Clear
12:53 PM 59.0 °F - 30.0 °F 33% 29.93 in 10.0 mi SSE 3.5 mph - N/A   Clear
1:53 PM 64.9 °F - 28.0 °F 25% 29.88 in 10.0 mi SW 12.7 mph 18.4 mph N/A   Clear
2:53 PM 66.0 °F - 26.1 °F 22% 29.84 in 10.0 mi South 6.9 mph 18.4 mph N/A   Clear
3:53 PM 70.0 °F - 25.0 °F 18% 29.80 in 10.0 mi SSW 20.7 mph 27.6 mph N/A   Clear
4:53 PM 70.0 °F - 24.1 °F 18% 29.80 in 10.0 mi SW 11.5 mph - N/A   Clear
5:53 PM 69.1 °F - 12.9 °F 11% 29.81 in 10.0 mi West 20.7 mph - N/A   Clear
6:53 PM 63.0 °F - 16.0 °F 16% 29.84 in 10.0 mi WSW 15.0 mph - N/A   Clear
7:53 PM 61.0 °F - 19.9 °F 21% 29.87 in 10.0 mi West 15.0 mph - N/A   Clear
8:53 PM 54.0 °F - 18.0 °F 24% 29.92 in 10.0 mi NW 8.1 mph - N/A   Clear
9:53 PM 52.0 °F - 19.9 °F 28% 29.95 in 10.0 mi NNW 9.2 mph - N/A   Clear
10:53 PM 50.0 °F - 17.1 °F 27% 29.98 in 10.0 mi NE 10.4 mph - N/A   Clear
11:53 PM 48.0 °F - 16.0 °F 28% 29.99 in 10.0 mi NE 13.8 mph - N/A   Clear